This demonstration page uses our WeatherBlox Daily Observations layout. Learn more.

Left ArrowRight Arrow

Hourly Observations for December 30, 2020

Temp ( °F °C ) Dew Point ( °F °C ) Humidity (%) Winds ( mph kmh ) Pressure ( in mb ) Visibility ( mi km ) Precip ( " mm )
12:13 am 00:13 Mostly Cloudy 27 -2.8 22 -5.6 81 81 WNW 9 15 30.06 1018 10 16.0934 0 0
12:29 am 00:29 Cloudy 28 -2.2 22 -5.6 78 78 WNW 8 13 30.06 1018 10 16.0934 0 0
12:54 am 00:54 Cloudy 28 -2.2 23 -5 81 81 NW 5 7 30.04 1017 10 16.0934 0 0
1:04 am 01:04 Cloudy 29 -1.7 23 -5 78 78 WNW 3 6 30.07 1018 10 16.0934 0 0
1:19 am 01:19 Cloudy 28 -2.2 23 -5 81 81 WSW 5 7 30.08 1019 10 16.0934 0 0
1:31 am 01:31 Cloudy 28 -2.2 23 -5 81 81 WNW 5 7 30.08 1019 10 16.0934 0 0
1:54 am 01:54 Mostly Cloudy 32 0 24 -4.4 73 73 NW 8 13 30.05 1018 10 16.0934 0 0
2:54 am 02:54 Partly Cloudy 31 -0.6 22 -5.6 69 69 NW 16 26 30.06 1018 10 16.0934 0 0
3:54 am 03:54 Clear 27 -2.8 18 -7.8 69 69 NW 9 15 30.08 1019 10 16.0934 0 0
4:54 am 04:54 Clear 23 -5 17 -8.3 78 78 W 3 6 30.09 1019 10 16.0934 0 0
5:54 am 05:54 Clear 19 -7.2 14 -10 81 81 S 5 7 30.14 1021 10 16.0934 0 0
6:54 am 06:54 Clear 18 -7.8 13 -10.6 81 81 Calm 30.18 1022 10 16.0934 0 0
7:54 am 07:54 Sunny 17 -8.3 12 -11.1 80 80 W 8 13 30.19 1022 10 16.0934 0 0
8:54 am 08:54 Sunny 18 -7.8 11 -11.7 74 74 SW 3 6 30.23 1024 10 16.0934 0 0
9:54 am 09:54 Sunny 23 -5 13 -10.6 65 65 W 9 15 30.23 1024 10 16.0934 0 0
10:54 am 10:54 Sunny 26 -3.3 13 -10.6 57 57 W 9 15 30.25 1024 10 16.0934 0 0
11:54 am 11:54 Sunny 27 -2.8 14 -10 58 58 WNW 8 13 30.23 1024 10 16.0934 0 0
12:54 pm 12:54 Sunny 27 -2.8 14 -10 58 58 W 8 13 30.22 1023 10 16.0934 0 0
1:54 pm 13:54 Sunny 27 -2.8 15 -9.4 61 61 NW 14 22 30.22 1023 8 12.87472 0 0
2:54 pm 14:54 Sunny 28 -2.2 16 -8.9 60 60 WNW 6 9 30.22 1023 10 16.0934 0 0
3:54 pm 15:54 Sunny 28 -2.2 15 -9.4 58 58 WNW 9 15 30.22 1024 10 16.0934 0 0
4:54 pm 16:54 Sunny 25 -3.9 15 -9.4 66 66 WNW 5 7 30.24 1024 10 16.0934 0 0
5:54 pm 17:54 Clear 18 -7.8 9 -12.8 68 68 Calm 30.25 1024 10 16.0934 0 0
6:54 pm 18:54 Clear 9 -12.8 6 -14.4 88 88 NNW 3 6 30.25 1025 10 16.0934 0 0
7:54 pm 19:54 Clear 8 -13.3 4 -15.6 83 83 N 5 7 30.26 1025 10 16.0934 0 0
8:54 pm 20:54 Clear 7 -13.9 3 -16.1 84 84 N 6 9 30.26 1025 10 16.0934 0 0
9:54 pm 21:54 Clear 5 -15 1 -17.2 83 83 Calm 30.26 1025 10 16.0934 0 0
10:54 pm 22:54 Clear 1 -17.2 -3 -19.4 83 83 N 5 7 30.26 1025 10 16.0934 0 0
11:54 pm 23:54 Clear 2 -16.7 -4 -20 76 76 Calm 30.25 1025 10 16.0934 0 0

Powered by AerisWeather